Wind_Speed
38 33 26 24 24 21 16 15 12 10 9 14 18 21 22 26 29 33 36 38 40 41 43 44 46 48 49 49 48 47 47 48 48 48 47 47 47 48 49 50 51 51 51
34 23 21 20 15 13 11 10 8 8 13 17 19 22 26 29 32 34 37 38 41 44 46 49 49 49 48 43 41 42 43 42 41 40 40 40 39 38 39 40 42 44 45
25 18 10 6 7 6 6 7 8 12 15 17 21 25 28 31 33 35 37 40 45 49 52 54 54 51 45 41 40 39 39 37 36 36 35 35 35 34 35 35 36 36 36
19 10 3 1 1 3 6 8 10 12 16 21 24 27 29 31 33 36 40 45 50 54 57 57 55 50 45 42 40 39 36 34 33 32 33 33 33 33 32 32 33 34 33
10 5 3 3 4 5 5 7 11 15 19 22 24 26 28 32 36 40 45 49 53 57 59 58 52 45 42 40 39 37 34 31 30 30 30 31 31 31 30 30 28 29 30
10 9 8 7 8 7 7 10 13 15 17 20 25 30 33 35 39 42 47 52 56 58 57 53 47 43 40 38 37 35 32 30 29 27 27 27 29 28 27 27 26 24 25
11 10 10 9 8 9 11 12 13 15 20 25 28 31 34 37 41 45 50 54 56 57 53 48 45 43 40 39 37 35 33 31 28 27 26 25 24 22 24 24 22 20 20
9 8 10 10 11 12 13 13 16 19 23 27 30 33 36 40 44 48 51 53 55 54 50 47 45 42 40 37 35 34 34 33 31 29 27 26 24 22 19 20 19 17 15
7 8 9 11 12 16 18 18 19 22 26 29 33 36 40 43 47 49 52 53 53 51 49 47 44 42 41 38 33 33 32 33 34 33 30 28 25 23 18 16 17 15 14
6 7 10 10 13 17 20 22 22 24 27 30 34 38 41 44 47 50 51 51 50 46 46 47 46 43 39 36 34 32 31 30 30 29 28 26 24 22 21 16 14 16 14
5 7 7 8 12 17 23 24 25 26 28 31 35 38 42 47 49 51 52 52 49 48 49 48 46 42 37 35 32 30 29 28 28 25 22 22 20 20 20 17 11 15 15
5 6 6 8 13 17 20 23 24 26 30 33 37 41 45 49 51 52 53 51 49 51 49 46 43 39 35 31 29 27 27 27 26 24 21 18 17 18 19 15 10 10 12
5 6 6 9 12 16 19 22 26 30 33 37 41 44 48 51 52 53 53 51 49 49 45 45 43 40 33 29 28 25 26 28 27 24 21 19 17 16 15 12 9 8 9
7 6 6 8 11 15 18 22 28 32 35 38 42 46 50 52 52 53 52 50 49 46 44 44 43 38 34 31 29 26 27 24 20 20 20 19 15 12 10 8 7 7 7
7 6 7 9 12 16 20 24 28 33 38 42 45 47 50 53 53 53 52 51 48 45 44 43 40 33 29 27 26 25 23 20 21 23 24 22 14 12 9 5 5 6 5
6 6 7 10 14 19 23 27 30 35 39 43 45 49 52 54 54 54 52 50 47 45 44 41 36 31 29 26 23 20 20 21 24 23 24 19 13 10 7 3 3 4 3
6 5 8 11 15 20 24 28 32 36 40 43 46 49 52 53 54 53 51 49 47 43 42 38 34 31 27 23 19 18 20 22 21 25 24 22 14 9 6 3 1 3 4
5 6 9 12 15 20 24 28 32 36 40 44 47 50 51 52 53 52 50 48 45 42 40 35 32 28 26 20 20 20 24 24 23 25 21 18 18 10 6 4 2 5 5
5 7 10 14 18 22 26 30 33 37 41 44 47 49 50 52 53 52 49 47 44 39 38 34 30 27 24 21 21 25 27 28 27 22 17 15 15 12 6 4 5 7 7
6 10 13 17 20 23 27 31 34 38 41 44 47 49 50 51 51 51 48 45 43 39 36 32 28 26 22 22 25 29 31 29 24 19 16 12 12 13 8 7 8 9 10
10 13 16 20 23 26 29 32 35 38 42 44 47 48 49 50 50 49 46 43 41 37 34 30 25 23 20 21 25 30 28 26 22 18 16 12 11 10 10 11 11 13 14
13 15 18 21 24 28 31 34 36 39 42 45 46 46 48 50 50 48 45 42 39 36 32 29 23 20 18 21 26 26 24 21 21 22 23 18 14 15 16 16 16 17 19
16 17 20 23 26 30 33 36 38 41 42 43 44 46 48 49 50 48 45 41 38 36 29 25 19 18 18 21 24 23 21 20 20 20 19 24 26 24 20 18 21 23 23
20 19 22 26 29 33 36 37 38 40 40 41 42 45 48 50 51 48 45 41 39 35 25 19 14 12 14 19 21 21 20 20 18 20 20 18 17 16 18 19 24 18 21
23 23 25 28 31 34 35 36 37 38 38 38 41 44 47 50 51 47 44 42 41 34 20 12 9 10 13 16 18 16 16 17 16 18 19 18 18 19 18 18 18 17 18
25 27 28 30 32 34 35 35 36 35 35 37 40 43 47 49 49 46 43 42 41 29 15 10 8 9 11 15 17 15 10 10 11 14 17 18 17 18 21 20 18 16 14
Wind_Direction
303 301 299 293 291 301 307 310 315 319 318 319 315 317 319 321 322 320 315 313 313 312 310 309 308 306 304 302 300 297 292 288 285 283 282 279 278 276 273 271 271 271 272
307 293 287 290 302 300 308 317 319 316 314 315 320 322 326 322 318 317 317 319 319 318 318 318 318 317 316 312 304 298 294 291 290 290 289 287 284 283 281 279 274 270 269
310 299 287 277 288 305 321 320 313 315 320 324 326 326 323 322 324 324 324 324 325 325 325 324 324 323 320 312 304 302 301 301 298 294 291 289 288 286 285 280 275 272 270
317 318 304 138 23 334 313 318 329 332 329 331 328 326 327 328 328 328 329 328 325 324 325 326 328 327 322 317 314 312 311 308 305 301 296 292 289 287 284 282 281 276 273
352 24 51 52 11 335 346 359 340 336 335 330 330 332 337 337 334 333 331 327 327 327 326 328 329 327 323 319 317 316 314 311 310 307 304 300 295 291 288 286 282 279 275
37 36 19 27 50 41 7 348 341 335 337 343 348 346 342 338 337 333 332 330 329 328 329 330 329 327 323 319 316 314 313 309 309 308 307 304 300 296 289 284 285 283 282
30 32 37 36 21 7 359 347 346 355 359 355 351 346 344 340 337 335 333 332 331 330 331 332 331 328 325 321 317 314 314 313 309 310 310 307 311 301 292 290 290 289 283
13 14 15 18 15 10 5 4 3 2 359 355 352 348 344 342 339 337 335 334 333 333 334 333 331 328 325 322 318 314 311 311 311 309 307 310 311 311 302 285 286 291 297
359 359 7 16 20 20 17 10 7 3 358 355 351 349 345 344 340 338 338 338 337 336 334 332 329 327 325 323 320 316 312 310 307 305 303 303 303 311 307 288 279 278 294
354 5 10 13 20 16 12 11 5 359 357 354 350 348 345 342 341 342 341 340 339 337 334 331 329 328 327 326 324 322 321 317 312 308 306 301 300 306 308 299 275 273 283
344 1 0 360 6 7 10 6 360 354 352 352 350 347 345 344 344 344 343 343 341 338 335 333 332 330 328 329 328 328 329 329 326 319 308 300 300 298 304 294 280 263 272
333 345 339 347 3 2 1 358 355 353 353 352 350 348 348 346 347 346 346 345 342 339 340 341 340 338 334 333 333 334 337 336 334 332 328 320 311 305 305 295 283 262 260
313 321 321 337 350 354 350 350 353 354 354 354 350 349 348 347 349 348 347 345 343 342 344 343 344 344 342 341 341 340 340 339 338 338 337 333 323 313 304 291 281 279 253
301 302 317 333 347 347 346 351 353 354 354 353 350 350 349 349 350 348 348 346 346 345 346 346 347 350 349 347 346 346 343 347 355 353 347 335 334 332 316 285 267 270 255
292 297 320 335 338 340 349 353 353 352 353 352 350 350 349 349 350 349 350 347 348 346 348 350 352 355 352 349 347 346 352 356 352 348 345 344 336 334 328 297 244 246 245
282 295 319 334 341 342 350 352 351 352 351 350 350 350 349 350 350 349 349 347 349 349 350 351 354 357 356 356 356 358 360 355 354 356 354 351 349 339 341 328 222 219 206
261 295 324 341 340 341 347 351 350 350 349 349 350 350 350 350 349 348 349 348 350 351 352 351 355 358 359 3 4 1 358 357 360 360 359 1 3 357 0 3 200 180 167
267 306 330 340 336 343 346 347 349 348 348 348 350 350 349 349 349 348 348 348 350 352 351 353 355 360 2 7 0 357 355 357 350 349 356 1 10 12 14 25 103 152 161
280 315 334 336 340 341 341 344 346 348 347 348 349 348 349 349 349 348 347 347 350 353 351 354 357 1 3 7 0 356 357 351 350 356 3 8 10 18 33 63 105 130 143
306 326 330 334 337 338 339 342 345 346 346 347 347 347 348 350 348 347 346 347 348 352 352 354 358 1 1 2 1 358 352 353 358 4 9 16 15 19 54 86 104 115 121
314 322 325 329 334 337 339 341 344 345 345 345 346 346 347 349 349 347 345 345 348 352 352 353 359 2 2 2 3 359 0 5 15 22 22 25 20 36 74 90 101 110 114
304 310 317 325 332 335 337 339 342 344 344 344 344 346 347 349 349 348 346 345 347 350 352 352 358 1 5 9 7 9 21 32 33 38 41 44 59 73 84 93 103 108 111
286 300 314 321 325 329 334 339 341 343 343 341 342 344 347 349 350 349 346 344 346 347 348 349 356 360 9 12 13 20 32 33 40 39 53 58 74 69 75 88 104 112 115
281 299 312 319 322 329 334 338 339 339 338 339 343 346 348 349 350 350 347 346 345 344 344 347 359 5 18 14 20 26 37 40 46 54 59 64 67 75 76 90 117 115 117
285 302 311 316 324 329 331 334 333 334 338 341 344 347 349 350 351 351 348 347 347 348 346 358 13 22 25 17 28 35 40 50 65 62 57 59 64 73 87 88 108 123 119
289 301 313 319 322 323 326 327 329 335 338 342 346 348 350 351 351 351 350 349 351 355 1 20 40 42 30 25 30 41 47 49 54 51 58 63 71 74 80 82 92 104 111
Height
5731 5728 5726 5724 5722 5720 5719 5717 5716 5715 5714 5713 5711 5708 5705 5702 5698 5693 5687 5681 5675 5668 5661 5654 5646 5639 5631 5624 5617 5610 5604 5597 5592 5587 5583 5579 5576 5573 5571 5570 5568 5566 5566
5721 5718 5717 5716 5716 5716 5714 5714 5713 5713 5711 5710 5707 5704 5700 5696 5691 5685 5679 5672 5665 5657 5650 5642 5633 5625 5617 5610 5603 5596 5590 5584 5578 5573 5569 5565 5563 5560 5558 5555 5554 5553 5552
5712 5710 5710 5710 5711 5711 5711 5711 5711 5710 5708 5706 5702 5698 5694 5688 5683 5678 5671 5664 5657 5648 5639 5630 5621 5612 5605 5597 5590 5584 5577 5572 5567 5563 5559 5555 5552 5549 5546 5544 5542 5541 5540
5708 5706 5706 5706 5708 5709 5709 5709 5708 5707 5705 5701 5697 5693 5689 5684 5678 5672 5664 5656 5647 5638 5628 5617 5608 5599 5591 5584 5577 5571 5566 5561 5556 5552 5548 5544 5541 5538 5536 5534 5531 5528 5528
5708 5706 5707 5707 5707 5707 5708 5707 5706 5704 5701 5698 5694 5690 5685 5679 5672 5664 5656 5647 5637 5626 5616 5607 5597 5589 5581 5575 5568 5562 5556 5552 5547 5543 5539 5535 5531 5528 5525 5523 5521 5519 5518
5711 5710 5709 5708 5707 5708 5708 5707 5705 5703 5700 5696 5691 5685 5679 5673 5665 5658 5649 5639 5628 5618 5607 5597 5589 5581 5573 5566 5560 5554 5549 5544 5540 5536 5531 5527 5522 5519 5516 5514 5512 5511 5509
5715 5713 5711 5710 5710 5709 5708 5706 5704 5701 5697 5692 5687 5681 5675 5668 5660 5651 5641 5630 5620 5609 5599 5589 5580 5572 5564 5557 5550 5545 5540 5536 5532 5528 5523 5519 5515 5512 5509 5506 5504 5503 5501
5717 5715 5713 5712 5710 5709 5707 5704 5701 5697 5692 5688 5683 5677 5670 5662 5653 5644 5634 5623 5612 5600 5590 5581 5573 5564 5556 5549 5542 5536 5531 5527 5523 5519 5516 5512 5508 5505 5502 5499 5498 5496 5495
5718 5716 5714 5712 5710 5707 5704 5701 5697 5693 5689 5684 5679 5672 5664 5656 5647 5637 5626 5615 5603 5592 5582 5574 5565 5556 5547 5540 5535 5529 5523 5519 5514 5510 5507 5504 5501 5498 5495 5493 5492 5491 5491
5717 5716 5714 5712 5710 5706 5703 5698 5695 5691 5686 5681 5675 5668 5660 5652 5641 5630 5620 5608 5598 5587 5577 5566 5556 5548 5540 5533 5526 5521 5515 5510 5505 5501 5497 5494 5493 5491 5488 5487 5486 5486 5486
5717 5715 5714 5712 5709 5705 5701 5697 5694 5690 5684 5678 5671 5664 5655 5645 5634 5624 5612 5601 5590 5579 5569 5559 5549 5541 5533 5525 5519 5513 5508 5503 5498 5493 5490 5487 5486 5484 5482 5481 5480 5481 5481
5716 5715 5713 5712 5709 5705 5701 5697 5693 5688 5681 5674 5667 5659 5649 5638 5627 5616 5605 5594 5583 5572 5562 5552 5543 5534 5526 5520 5514 5508 5503 5498 5492 5488 5484 5481 5479 5478 5476 5475 5475 5475 5476
5715 5714 5712 5710 5707 5704 5700 5695 5690 5684 5678 5669 5661 5653 5644 5633 5622 5610 5599 5588 5578 5566 5556 5546 5537 5528 5521 5515 5509 5504 5499 5494 5489 5484 5480 5477 5474 5472 5470 5470 5470 5471 5472
5713 5712 5710 5708 5705 5702 5697 5692 5687 5681 5674 5666 5657 5648 5638 5627 5617 5606 5596 5585 5573 5562 5553 5543 5534 5524 5517 5511 5505 5501 5496 5491 5487 5483 5478 5474 5471 5468 5467 5466 5467 5468 5469
5711 5710 5708 5706 5703 5699 5695 5690 5684 5677 5669 5661 5653 5645 5635 5623 5613 5602 5592 5581 5571 5560 5550 5540 5532 5525 5519 5512 5505 5499 5495 5491 5486 5482 5477 5472 5468 5466 5464 5464 5465 5466 5467
5709 5708 5706 5703 5700 5697 5692 5686 5680 5672 5665 5658 5649 5640 5629 5619 5608 5598 5588 5578 5568 5558 5548 5539 5531 5524 5517 5511 5506 5500 5496 5491 5486 5481 5476 5471 5467 5465 5463 5463 5463 5465 5466
5707 5706 5703 5700 5697 5694 5689 5683 5676 5669 5662 5654 5646 5636 5625 5616 5605 5595 5585 5575 5565 5556 5546 5538 5531 5524 5517 5511 5506 5502 5497 5492 5487 5481 5476 5471 5467 5465 5463 5463 5463 5464 5466
5704 5703 5701 5698 5695 5691 5686 5680 5674 5667 5659 5651 5641 5633 5623 5613 5603 5592 5582 5572 5563 5554 5545 5537 5530 5523 5517 5512 5507 5502 5497 5492 5486 5481 5476 5472 5468 5465 5464 5463 5463 5464 5466
5702 5701 5699 5696 5692 5688 5683 5677 5670 5663 5655 5647 5639 5630 5621 5610 5599 5589 5579 5571 5562 5553 5544 5536 5530 5524 5518 5513 5508 5502 5497 5491 5485 5479 5475 5472 5469 5466 5464 5464 5464 5466 5467
5701 5700 5697 5693 5690 5685 5680 5674 5667 5660 5652 5644 5636 5626 5617 5608 5598 5587 5577 5567 5559 5551 5543 5536 5530 5524 5519 5514 5508 5503 5496 5489 5484 5479 5475 5472 5470 5468 5466 5466 5467 5468 5470
5700 5697 5694 5690 5686 5682 5676 5670 5664 5657 5650 5641 5633 5624 5615 5606 5595 5584 5575 5565 5557 5550 5542 5535 5530 5525 5520 5515 5510 5504 5496 5490 5484 5480 5476 5473 5471 5469 5469 5469 5470 5471 5473
5696 5694 5691 5688 5682 5678 5673 5667 5661 5654 5646 5637 5630 5622 5612 5603 5593 5582 5571 5562 5555 5548 5541 5535 5530 5525 5521 5517 5511 5505 5499 5494 5489 5485 5480 5476 5474 5473 5473 5474 5475 5476 5478
5690 5689 5687 5684 5679 5675 5669 5663 5657 5649 5642 5635 5626 5618 5609 5600 5589 5579 5569 5560 5552 5545 5539 5534 5530 5526 5522 5518 5513 5508 5503 5499 5494 5491 5488 5485 5483 5481 5481 5480 5481 5482 5484
5687 5686 5683 5680 5676 5671 5665 5660 5653 5647 5640 5632 5623 5614 5605 5595 5586 5576 5566 5557 5549 5541 5536 5532 5529 5527 5523 5520 5516 5512 5507 5504 5500 5497 5494 5491 5490 5488 5487 5487 5487 5488 5490
5684 5683 5680 5676 5672 5667 5662 5656 5650 5643 5636 5628 5620 5611 5602 5592 5583 5573 5563 5554 5545 5537 5532 5530 5528 5527 5525 5522 5519 5515 5512 5509 5506 5503 5501 5498 5497 5495 5494 5494 5494 5495 5496
5680 5679 5676 5673 5668 5663 5657 5652 5645 5638 5631 5624 5616 5608 5599 5589 5579 5570 5561 5552 5542 5535 5531 5530 5529 5528 5527 5525 5522 5518 5515 5513 5511 5509 5507 5505 5503 5502 5502 5501 5501 5501 5501